This is the latest recevied weather packets stored in our database for station/object YB2YEN-13. If no packets are shown the sender has not sent any weather packets the latest 10 day(s).
| Time | Temp. | Humidity | Pressure | Rain* | Wind** | Luminosity | Snow |
|---|---|---|---|---|---|---|---|
| 1778121036 | 30.56° C | 91% | 979 hPa | - | - | 0 W/m² | - |
| 1778120714 | 31.67° C | 90% | 979 hPa | - | - | 0 W/m² | - |
| 1778120392 | 30.56° C | 99% | 979 hPa | - | - | 0 W/m² | - |
| 1778120070 | 30° C | 99% | 979 hPa | - | - | 0 W/m² | - |
| 1778119747 | 28.89° C | 99% | 979 hPa | - | - | 0 W/m² | - |
| 1778119425 | 29.44° C | 99% | 979 hPa | - | - | 0 W/m² | - |
| 1778119102 | 29.44° C | 97% | 979 hPa | - | - | 0 W/m² | - |
| 1778118780 | 30° C | 92% | 979 hPa | - | - | 0 W/m² | - |
| 1778118458 | 30.56° C | 99% | 979 hPa | - | - | 0 W/m² | - |
| 1778118136 | 30° C | 99% | 979 hPa | - | - | 0 W/m² | - |
| 1778117814 | 30° C | 99% | 979 hPa | - | - | 0 W/m² | - |
| 1778117492 | 30° C | 99% | 979 hPa | - | - | 0 W/m² | - |
| 1778117170 | 29.44° C | 99% | 979 hPa | - | - | 0 W/m² | - |
| 1778116848 | 28.33° C | 99% | 979 hPa | - | - | 0 W/m² | - |
| 1778116525 | 28.89° C | 99% | 979 hPa | - | - | 0 W/m² | - |
| 1778116202 | 28.89° C | 99% | 979 hPa | - | - | 0 W/m² | - |
| 1778115879 | 28.89° C | 99% | 979 hPa | - | - | 0 W/m² | - |
| 1778115558 | 28.33° C | 99% | 979 hPa | - | - | 0 W/m² | - |
| 1778115236 | 27.78° C | 99% | 979 hPa | - | - | 0 W/m² | - |
| 1778114913 | 27.22° C | 99% | 979 hPa | - | - | 0 W/m² | - |
| 1778114591 | 27.22° C | 99% | 979 hPa | - | - | 0 W/m² | - |
| 1778114269 | 27.22° C | 99% | 979 hPa | - | - | 0 W/m² | - |
| 1778113947 | 27.22° C | 99% | 979 hPa | - | - | 0 W/m² | - |
| 1778113625 | 26.67° C | 99% | 979 hPa | - | - | 0 W/m² | - |
| 1778113303 | 26.67° C | 99% | 979 hPa | - | - | 0 W/m² | - |
* Rain since midnight (hover to see other rain measurements)
** Current wind speed in m/s (hover to see current wind gust speed)